period_start,C,m1,H,J0,J1,J2,J3,J4,J5,JA,JB,JC,JD,JJ,JK,JN,#
2017-10-12 00:00:28,0.02,0.04,0.00,19.30,23.07,26.23,14.13,46.65,1020.01,2048.85,3507.98,3117.99,3566.01,599.93,605.55,4.78,0000 0000 0000 0000 000000
2017-10-12 00:05:29,-0.00,0.04,0.00,19.28,23.06,26.25,14.18,46.73,1019.99,2048.96,3507.92,3117.99,3566.00,600.02,605.75,4.83,0000 0000 0000 0000 000000
2017-10-12 00:10:30,0.00,0.04,0.00,19.26,23.04,26.23,14.15,46.66,1020.02,2048.92,3507.76,3117.99,3566.00,599.73,605.44,4.88,0000 0000 0000 0000 000000
2017-10-12 00:15:32,-0.00,0.04,0.00,19.26,23.04,26.22,14.16,46.67,1020.03,2048.95,3507.63,3117.99,3566.00,600.14,605.86,4.93,0000 0000 0000 0000 000000
2017-10-12 00:20:33,0.00,0.04,0.00,19.30,23.02,26.20,14.23,46.70,1020.03,2048.96,3507.37,3117.99,3565.99,600.24,605.92,4.98,0000 0000 0000 0000 000000
2017-10-12 00:25:34,-0.00,0.04,0.00,19.29,23.02,26.20,14.17,46.78,1020.03,2048.99,3507.50,3117.99,3565.99,600.07,605.69,5.03,0000 0000 0000 0000 000000
2017-10-12 00:30:36,0.00,0.04,0.00,19.27,23.01,26.20,14.13,46.75,1020.03,2048.98,3507.42,3118.00,3565.99,599.95,605.62,5.08,0000 0000 0000 0000 000000
2017-10-12 00:35:37,0.00,0.04,0.00,19.25,22.99,26.19,14.20,46.73,1020.03,2048.98,3507.07,3118.00,3565.99,599.94,605.67,5.13,0000 0000 0000 0000 000000
2017-10-12 00:40:38,0.00,0.04,0.00,19.25,22.99,26.21,14.19,46.73,1020.03,2048.99,3507.04,3118.00,3565.99,600.08,605.75,5.18,0000 0000 0000 0000 000000
2017-10-12 00:45:39,0.00,0.04,0.00,19.25,22.98,26.16,14.18,46.62,1020.04,2048.99,3507.02,3118.00,3565.98,600.08,605.76,5.23,0000 0000 0000 0000 000000
2017-10-12 00:50:40,0.00,0.04,0.00,19.26,22.97,26.17,14.20,46.79,1020.05,2048.98,3507.02,3118.00,3565.97,600.40,606.11,5.28,0000 0000 0000 0000 000000
2017-10-12 00:55:41,0.00,0.04,0.00,19.25,22.97,26.17,14.23,46.83,1020.05,2048.99,3507.01,3118.00,3565.97,600.07,605.62,5.33,0000 0000 0000 0000 000000
2017-10-12 01:00:43,0.00,0.04,0.00,19.22,22.95,26.14,14.26,46.84,1020.05,2048.99,3507.01,3118.01,3565.99,600.25,606.03,5.38,0000 0000 0000 0000 000000
2017-10-12 01:05:44,0.00,0.04,0.00,19.22,22.94,26.14,14.19,46.74,1020.06,2048.99,3507.00,3118.01,3565.98,600.06,605.80,5.43,0000 0000 0000 0000 000000
2017-10-12 01:10:45,0.00,0.04,0.00,19.25,22.94,26.15,14.27,46.83,1020.07,2048.99,3506.99,3118.00,3565.97,600.15,606.02,5.48,0000 0000 0000 0000 000000
2017-10-12 01:15:45,0.00,0.04,0.00,19.28,22.93,26.13,14.20,46.76,1020.09,2048.99,3506.98,3118.00,3565.80,599.85,605.50,5.53,0000 0000 0000 0000 000000
2017-10-12 01:20:47,0.00,0.04,0.00,19.25,22.92,26.16,14.24,46.74,1020.10,2048.99,3506.94,3118.00,3565.63,600.02,605.76,5.58,0000 0000 0000 0000 000000
2017-10-12 01:25:48,0.00,0.04,0.00,19.29,22.92,26.15,14.21,46.77,1020.10,2048.99,3506.91,3118.00,3565.29,599.96,605.64,5.63,0000 0000 0000 0000 000000
2017-10-12 01:30:49,0.00,0.04,0.00,19.27,22.92,26.12,14.25,46.72,1020.12,2049.00,3506.82,3118.00,3565.17,600.40,606.12,5.68,0000 0000 0000 0000 000000
2017-10-12 01:35:50,0.01,0.04,0.00,19.30,22.92,26.13,14.14,46.63,1020.09,2049.00,3506.71,3118.00,3565.04,599.89,605.68,5.73,0000 0000 0000 0000 000000
2017-10-12 01:40:52,0.00,0.04,0.00,19.27,22.91,26.12,14.21,46.74,1020.17,2049.00,3506.47,3118.00,3565.05,600.16,605.83,5.78,0000 0000 0000 0000 000000
2017-10-12 01:45:53,0.00,0.04,0.00,19.31,22.90,26.12,14.16,46.58,1020.27,2049.00,3506.41,3118.01,3565.02,599.95,605.74,5.83,0000 0000 0000 0000 000000
2017-10-12 01:50:54,0.00,0.04,0.00,19.28,22.90,26.13,14.20,46.67,1020.34,2049.00,3506.14,3118.00,3565.01,599.90,605.66,5.88,0000 0000 0000 0000 000000
2017-10-12 01:55:55,0.00,0.04,0.00,19.33,22.90,26.12,14.21,46.64,1020.39,2049.00,3506.02,3118.00,3565.00,600.15,605.96,5.93,0000 0000 0000 0000 000000
2017-10-12 02:00:57,0.00,0.04,0.00,19.32,22.90,26.13,14.22,46.65,1020.41,2049.00,3506.00,3118.00,3565.00,600.20,606.21,5.98,0000 0000 0000 0000 000000
2017-10-12 02:05:58,0.00,0.04,0.00,19.35,22.90,26.10,14.15,46.72,1020.45,2049.00,3506.00,3118.00,3564.99,600.10,605.81,6.03,0000 0000 0000 0000 000000
2017-10-12 02:10:59,0.00,0.04,0.00,19.29,22.90,26.09,14.12,46.61,1020.48,2049.00,3505.99,3117.99,3564.98,599.75,605.74,6.08,0000 0000 0000 0000 000000
2017-10-12 02:16:00,0.00,0.04,0.00,19.33,22.90,26.13,14.18,46.66,1020.48,2049.00,3505.99,3117.99,3564.96,600.07,605.99,6.13,0000 0000 0000 0000 000000
2017-10-12 02:21:02,0.00,0.04,0.00,19.35,22.91,26.14,14.18,46.69,1020.50,2049.00,3505.99,3117.99,3564.95,599.85,605.57,6.18,0000 0000 0000 0000 000000
2017-10-12 02:26:03,0.00,0.04,0.00,19.36,22.91,26.13,14.18,46.66,1020.52,2049.00,3505.98,3117.98,3564.79,599.83,605.61,6.23,0000 0000 0000 0000 000000
2017-10-12 02:31:05,0.01,0.04,0.00,19.33,22.92,26.17,14.18,46.77,1020.52,2049.00,3505.68,3117.97,3564.21,600.09,605.94,6.28,0000 0000 0000 0000 000000
2017-10-12 02:36:06,0.01,0.04,0.00,19.36,22.92,26.15,14.17,46.67,1020.52,2049.00,3505.23,3117.96,3564.04,599.89,605.56,6.33,0000 0000 0000 0000 000000
2017-10-12 02:41:07,0.00,0.04,0.00,19.34,22.92,26.17,14.21,46.64,1020.52,2049.00,3505.08,3117.96,3564.02,600.16,606.03,6.38,0000 0000 0000 0000 000000
2017-10-12 02:46:08,0.00,0.04,0.00,19.40,22.92,26.15,14.18,46.64,1020.52,2048.99,3505.06,3117.96,3564.02,600.21,605.91,6.43,0000 0000 0000 0000 000000
2017-10-12 02:51:10,0.00,0.04,0.00,19.39,22.92,26.14,14.14,46.74,1020.52,2048.99,3505.00,3117.90,3564.00,599.88,605.52,6.48,0000 0000 0000 0000 000000
2017-10-12 02:56:11,0.00,0.04,0.00,19.39,22.92,26.15,14.18,46.62,1020.52,2048.99,3505.00,3117.80,3564.00,599.94,605.71,6.53,0000 0000 0000 0000 000000
2017-10-12 03:01:12,0.00,0.04,0.00,19.37,22.92,26.16,14.16,46.65,1020.53,2048.99,3505.00,3117.57,3564.00,600.06,605.87,6.58,0000 0000 0000 0000 000000
2017-10-12 03:06:14,0.00,0.05,0.00,19.41,22.93,26.17,14.21,46.63,1020.53,2048.99,3504.99,3117.32,3563.99,600.01,605.77,6.64,0000 0000 0000 0000 000000
2017-10-12 03:11:15,0.00,0.05,0.00,19.42,22.94,26.15,14.21,46.70,1020.55,2048.99,3504.96,3117.28,3563.97,600.03,605.74,6.69,0000 0000 0000 0000 000000
2017-10-12 03:16:17,0.01,0.05,0.00,19.43,22.94,26.15,14.19,46.59,1020.55,2048.98,3504.63,3117.06,3563.77,599.81,605.47,6.74,0000 0000 0000 0000 000000
2017-10-12 03:21:18,0.01,0.05,0.00,19.41,22.94,26.16,14.22,46.66,1020.57,2048.98,3504.20,3117.04,3563.35,600.32,605.96,6.79,0000 0000 0000 0000 000000
2017-10-12 03:26:19,0.00,0.05,0.00,19.42,22.94,26.19,14.17,46.64,1020.61,2048.98,3504.06,3117.01,3563.10,599.73,605.38,6.84,0000 0000 0000 0000 000000
2017-10-12 03:31:21,0.00,0.05,0.00,19.45,22.95,26.20,14.20,46.77,1020.71,2048.98,3504.01,3117.02,3563.04,600.03,605.65,6.89,0000 0000 0000 0000 000000
2017-10-12 03:36:22,-0.00,0.05,0.00,19.48,22.96,26.17,14.18,46.63,1020.81,2048.97,3504.00,3117.00,3563.01,600.17,605.97,6.94,0000 0000 0000 0000 000000
2017-10-12 03:41:23,-0.00,0.05,0.00,19.47,22.97,26.21,14.12,46.72,1020.88,2048.95,3504.00,3117.00,3563.01,599.77,605.53,6.99,0000 0000 0000 0000 000000
2017-10-12 03:46:24,0.00,0.05,0.00,19.47,22.97,26.20,14.10,46.62,1020.85,2048.97,3503.99,3117.00,3563.00,599.84,605.55,7.04,0000 0000 0000 0000 000000
2017-10-12 03:51:26,-0.00,0.05,0.00,19.48,22.97,26.19,14.16,46.71,1020.93,2048.98,3503.96,3117.00,3562.98,600.27,606.16,7.09,0000 0000 0000 0000 000000
2017-10-12 03:56:27,0.00,0.05,0.00,19.49,22.99,26.23,14.18,46.61,1020.98,2048.97,3503.90,3116.99,3562.97,599.91,605.71,7.14,0000 0000 0000 0000 000000
2017-10-12 04:01:28,0.01,0.05,0.00,19.52,22.99,26.22,14.21,46.67,1021.01,2048.96,3503.52,3116.98,3562.94,600.39,606.13,7.19,0000 0000 0000 0000 000000
2017-10-12 04:06:30,0.01,0.05,0.00,19.54,22.99,26.20,14.13,46.61,1021.01,2048.93,3503.13,3116.97,3562.52,599.77,605.45,7.24,0000 0000 0000 0000 000000
2017-10-12 04:11:31,-0.00,0.05,0.00,19.53,23.01,26.20,14.20,46.72,1021.01,2048.92,3503.01,3116.93,3562.09,600.11,605.66,7.29,0000 0000 0000 0000 000000
2017-10-12 04:16:32,0.00,0.05,0.00,19.52,23.02,26.23,14.18,46.59,1021.01,2048.82,3503.00,3116.57,3562.01,599.99,605.78,7.34,0000 0000 0000 0000 000000
2017-10-12 04:21:33,-0.01,0.05,0.00,19.54,23.02,26.27,14.15,46.63,1021.01,2048.52,3502.97,3116.13,3562.00,600.26,606.00,7.39,0000 0000 0000 0000 000000
2017-10-12 04:26:35,0.02,0.05,0.00,19.56,23.03,26.26,14.21,46.68,1021.01,2048.51,3502.94,3116.06,3561.99,600.31,605.88,7.44,0000 0000 0000 0000 000000
2017-10-12 04:31:36,-0.03,0.05,0.00,19.58,23.04,26.26,14.17,46.61,1021.01,2048.42,3502.72,3116.05,3561.98,599.83,605.39,7.49,0000 0000 0000 0000 000000
2017-10-12 04:36:37,0.00,0.05,0.00,19.55,23.05,26.27,14.23,46.56,1021.01,2048.19,3502.10,3116.01,3561.90,600.40,606.09,7.54,0000 0000 0000 0000 000000
2017-10-12 04:41:38,0.01,0.05,0.00,19.57,23.06,26.26,14.27,46.63,1021.01,2048.26,3502.04,3116.00,3561.61,600.15,605.78,7.59,0000 0000 0000 0000 000000
2017-10-12 04:46:39,-0.01,0.05,0.00,19.54,23.07,26.29,14.23,46.67,1021.01,2048.08,3502.00,3116.00,3561.14,599.98,605.52,7.64,0000 0000 0000 0000 000000
2017-10-12 04:51:41,-0.00,0.05,0.00,19.56,23.07,26.32,14.16,46.57,1021.01,2048.06,3502.00,3116.00,3561.04,599.84,605.60,7.69,0000 0000 0000 0000 000000
2017-10-12 04:56:42,0.00,0.05,0.00,19.57,23.08,26.32,14.23,46.65,1021.01,2048.05,3501.94,3115.98,3561.00,599.96,605.71,7.74,0000 0000 0000 0000 000000
2017-10-12 05:01:43,0.00,0.05,0.00,19.60,23.09,26.30,14.16,46.63,1021.01,2048.03,3501.40,3115.96,3561.00,599.75,605.40,7.79,0000 0000 0000 0000 000000
2017-10-12 05:06:44,0.01,0.05,0.00,19.56,23.09,26.34,14.16,46.63,1021.01,2048.03,3501.05,3115.84,3560.96,600.00,605.69,7.84,0000 0000 0000 0000 000000
2017-10-12 05:11:46,0.00,0.05,0.00,19.56,23.09,26.31,14.22,46.73,1021.01,2048.02,3501.00,3115.56,3560.88,599.99,605.72,7.89,0000 0000 0000 0000 000000
2017-10-12 05:16:47,0.01,0.05,0.00,19.53,23.10,26.36,14.24,46.48,1021.01,2048.04,3501.00,3115.27,3560.71,600.03,605.70,7.94,0000 0000 0000 0000 000000
2017-10-12 05:21:49,0.01,0.05,0.00,19.59,23.12,26.36,14.19,46.65,1021.05,2048.02,3500.99,3115.13,3560.17,599.97,605.58,7.99,0000 0000 0000 0000 000000
2017-10-12 05:26:50,0.00,0.05,0.00,19.57,23.12,26.35,14.14,46.63,1021.04,2048.02,3500.84,3115.02,3560.03,599.62,605.16,8.04,0000 0000 0000 0000 000000
2017-10-12 05:31:51,0.01,0.05,0.00,19.59,23.12,26.35,14.18,46.60,1021.07,2048.02,3500.32,3115.01,3560.00,600.08,605.46,8.09,0000 0000 0000 0000 000000
2017-10-12 05:36:52,0.05,0.05,0.00,19.53,23.12,26.37,14.18,46.47,1021.07,2048.00,3499.47,3114.38,3559.18,600.02,605.75,8.14,0000 0000 0000 0000 000000
2017-10-12 05:41:54,0.04,0.05,0.00,19.56,23.13,26.38,14.20,46.76,1021.09,2048.00,3498.39,3113.74,3558.14,600.11,605.74,8.19,0000 0000 0000 0000 000000
2017-10-12 05:46:55,0.01,0.06,0.00,19.55,23.14,26.38,14.26,46.69,1021.06,2047.99,3497.97,3113.05,3557.79,600.11,605.72,8.24,0000 0000 0000 0000 000000
2017-10-12 05:51:57,0.02,0.06,0.00,19.59,23.14,26.40,14.18,46.59,1021.06,2047.98,3497.32,3112.99,3557.09,599.80,605.38,8.29,0000 0000 0000 0000 000000
2017-10-12 05:56:58,0.00,0.06,0.00,19.54,23.14,26.41,14.11,46.63,1021.09,2047.97,3497.04,3112.99,3557.01,599.56,605.34,8.34,0000 0000 0000 0000 000000
2017-10-12 06:01:59,0.00,0.06,0.00,19.58,23.14,26.42,14.16,46.56,1021.07,2047.97,3497.00,3112.96,3557.00,599.71,605.34,8.39,0000 0000 0000 0000 000000
2017-10-12 06:07:00,0.01,0.06,0.00,19.53,23.15,26.39,14.20,46.73,1021.06,2047.97,3496.99,3112.76,3556.98,600.08,605.85,8.44,0000 0000 0000 0000 000000
2017-10-12 06:12:02,0.02,0.06,0.00,19.56,23.15,26.37,14.17,46.71,1021.11,2047.95,3496.72,3112.20,3556.73,600.07,605.75,8.49,0000 0000 0000 0000 000000
2017-10-12 06:17:03,0.01,0.06,0.00,19.58,23.15,26.39,14.16,46.77,1021.24,2047.98,3496.15,3112.07,3556.37,599.88,605.62,8.54,0000 0000 0000 0000 000000
2017-10-12 06:22:04,0.00,0.06,0.00,19.60,23.15,26.38,14.19,46.80,1021.16,2047.97,3496.01,3112.01,3556.09,600.32,605.99,8.59,0000 0000 0000 0000 000000
2017-10-12 06:27:05,0.00,0.06,0.00,19.56,23.17,26.42,14.18,46.64,1021.23,2047.98,3495.90,3112.00,3556.01,599.67,605.44,8.64,0000 0000 0000 0000 000000
2017-10-12 06:32:07,0.02,0.06,0.00,19.57,23.17,26.44,14.13,46.67,1021.16,2047.98,3495.09,3111.87,3555.81,599.96,605.63,8.69,0000 0000 0000 0000 000000
2017-10-12 06:37:08,0.01,0.06,0.00,19.54,23.17,26.43,14.31,46.77,1021.22,2047.97,3495.00,3111.53,3555.20,600.48,606.29,8.74,0000 0000 0000 0000 000000
2017-10-12 06:42:09,0.01,0.06,0.00,19.55,23.17,26.41,14.26,46.65,1021.31,2047.94,3494.81,3111.18,3555.02,600.50,606.29,8.79,0000 0000 0000 0000 000000
2017-10-12 06:47:10,0.03,0.06,0.00,19.55,23.18,26.43,14.20,46.57,1021.44,2047.97,3493.80,3110.93,3554.76,600.12,606.17,8.84,0000 0000 0000 0000 000000
2017-10-12 06:52:12,0.10,0.07,0.00,19.55,23.19,26.43,14.16,46.68,1021.46,2047.97,3491.42,3109.72,3553.44,600.02,605.88,8.89,0000 0000 0000 0000 000000
2017-10-12 06:57:13,0.08,0.07,0.00,19.56,23.19,26.44,14.19,46.66,1021.48,2047.95,3488.43,3108.34,3551.96,600.07,605.99,8.95,0000 0000 0000 0000 000000
2017-10-12 07:02:15,0.04,0.08,0.00,19.54,23.19,26.45,14.20,46.62,1021.48,2047.95,3487.18,3107.84,3551.15,599.96,605.94,9.00,0000 0000 0000 0000 000000
2017-10-12 07:07:16,0.08,0.08,0.00,19.56,23.19,26.44,14.13,46.60,1021.49,2047.95,3485.16,3106.75,3550.04,599.89,605.82,9.05,0000 0000 0000 0000 000000
2017-10-12 07:12:17,0.04,0.08,0.00,19.57,23.19,26.43,14.23,46.58,1021.49,2047.94,3484.02,3106.04,3549.10,599.93,605.91,9.10,0000 0000 0000 0000 000000
2017-10-12 07:17:19,0.03,0.08,0.00,19.57,23.19,26.41,14.13,46.70,1021.50,2047.93,3483.17,3105.76,3548.77,599.66,605.56,9.15,0000 0000 0000 0000 000000
2017-10-12 07:22:20,0.03,0.09,0.00,19.53,23.19,26.44,14.20,46.73,1021.50,2047.93,3482.29,3105.03,3548.03,599.39,605.41,9.20,0000 0000 0000 0000 000000
2017-10-12 07:27:21,0.06,0.09,0.00,19.57,23.20,26.42,14.17,46.52,1021.50,2047.94,3480.97,3104.30,3547.12,600.14,606.10,9.25,0000 0000 0000 0000 000000
2017-10-12 07:32:22,0.06,0.09,0.00,19.55,23.20,26.42,14.23,46.70,1021.50,2047.88,3479.22,3103.37,3546.00,600.35,606.29,9.30,0000 0000 0000 0000 000000
2017-10-12 07:37:23,0.08,0.09,0.00,19.57,23.21,26.46,14.15,46.58,1021.50,2047.88,3477.26,3102.34,3544.84,599.82,605.80,9.35,0000 0000 0000 0000 000000
2017-10-12 07:42:24,0.07,0.10,0.00,19.53,23.22,26.44,14.20,46.69,1021.50,2047.92,3475.38,3101.31,3543.67,599.91,606.04,9.40,0000 0000 0000 0000 000000
2017-10-12 07:47:26,0.06,0.10,0.00,19.55,23.22,26.45,14.24,46.73,1021.50,2047.84,3473.34,3100.21,3542.45,600.05,606.07,9.45,0000 0000 0000 0000 000000
2017-10-12 07:52:27,0.08,0.11,0.00,19.51,23.22,26.45,14.17,46.68,1021.50,2047.82,3471.16,3099.05,3541.15,599.85,605.98,9.50,0000 0000 0000 0000 000000
2017-10-12 07:57:28,0.09,0.11,0.00,19.56,23.22,26.44,14.15,46.57,1021.50,2047.84,3469.02,3097.73,3539.66,599.88,605.85,9.55,0000 0000 0000 0000 000000
2017-10-12 08:02:30,0.07,0.11,0.00,19.55,23.22,26.43,14.28,46.76,1021.50,2047.83,3467.10,3096.59,3538.32,600.44,606.40,9.60,0000 0000 0000 0000 000000
2017-10-12 08:07:31,0.04,0.12,0.00,19.55,23.22,26.45,14.17,46.63,1021.50,2047.55,3465.42,3095.52,3537.05,599.79,605.72,9.65,0000 0000 0000 0000 000000
2017-10-12 08:12:32,0.05,0.12,0.00,19.53,23.22,26.47,14.22,46.71,1021.50,2047.38,3463.81,3094.51,3535.91,600.06,606.09,9.70,0000 0000 0000 0000 000000
2017-10-12 08:17:33,0.05,0.12,0.00,19.51,23.22,26.46,14.16,46.63,1021.50,2047.37,3462.47,3093.63,3534.79,600.30,606.29,9.75,0000 0000 0000 0000 000000
2017-10-12 08:22:35,0.06,0.12,0.00,19.52,23.22,26.47,14.17,46.65,1021.50,2047.30,3460.93,3092.67,3533.68,599.91,605.95,9.80,0000 0000 0000 0000 000000
2017-10-12 08:27:36,0.06,0.13,0.00,19.56,23.22,26.46,14.23,46.63,1021.51,2047.31,3459.40,3091.66,3532.50,600.08,606.08,9.85,0000 0000 0000 0000 000000
2017-10-12 08:32:37,0.06,0.13,0.00,19.54,23.22,26.43,14.21,46.67,1021.51,2047.27,3457.82,3090.67,3531.43,600.24,606.26,9.90,0000 0000 0000 0000 000000
2017-10-12 08:37:39,0.05,0.14,0.00,19.51,23.22,26.42,14.22,46.62,1021.52,2047.14,3456.20,3089.58,3530.05,600.27,606.19,9.95,0000 0000 0000 0000 000000
2017-10-12 08:42:40,0.04,0.14,0.00,19.52,23.21,26.43,14.19,46.57,1021.53,2047.09,3454.88,3088.76,3529.01,599.91,606.02,10.00,0000 0000 0000 0000 000000
2017-10-12 08:47:42,0.04,0.14,0.00,19.51,23.20,26.45,14.13,46.67,1021.60,2047.12,3453.90,3088.03,3528.12,599.67,605.67,10.05,0000 0000 0000 0000 000000
2017-10-12 08:52:43,0.04,0.14,0.00,19.56,23.20,26.45,14.14,46.77,1021.77,2047.05,3452.93,3087.35,3527.35,599.79,605.93,10.10,0000 0000 0000 0000 000000
2017-10-12 08:57:44,0.03,0.14,0.00,19.51,23.19,26.42,14.13,46.80,1021.85,2047.02,3451.98,3086.77,3526.54,599.69,606.11,10.15,0000 0000 0000 0000 000000
2017-10-12 09:02:46,0.03,0.15,0.00,19.52,23.19,26.43,14.16,46.73,1021.88,2047.03,3450.99,3086.04,3525.94,599.92,606.16,10.20,0000 0000 0000 0000 000000
2017-10-12 09:07:47,0.06,0.15,0.00,19.48,23.19,26.42,14.25,46.82,1021.92,2047.06,3449.81,3085.41,3525.09,599.93,606.30,10.25,0000 0000 0000 0000 000000
2017-10-12 09:12:48,0.02,0.15,0.00,19.50,23.17,26.43,14.24,46.79,1021.93,2047.02,3449.01,3084.96,3524.25,600.40,606.73,10.30,0000 0000 0000 0000 000000
2017-10-12 09:17:50,0.04,0.15,0.00,19.50,23.17,26.41,14.25,46.83,1021.92,2047.02,3448.19,3084.21,3523.77,600.26,606.60,10.35,0000 0000 0000 0000 000000
2017-10-12 09:22:51,0.03,0.15,0.00,19.51,23.17,26.40,14.14,46.79,1021.90,2047.03,3447.36,3083.92,3523.04,599.37,605.93,10.40,0000 0000 0000 0000 000000
2017-10-12 09:27:52,0.04,0.16,0.00,19.46,23.16,26.39,14.19,46.84,1021.95,2047.03,3446.49,3083.15,3522.62,600.03,606.43,10.45,0000 0000 0000 0000 000000
2017-10-12 09:32:53,0.01,0.16,0.00,19.47,23.15,26.40,14.24,46.63,1021.96,2047.07,3445.78,3082.99,3522.02,600.29,606.71,10.50,0000 0000 0000 0000 000000
2017-10-12 09:37:55,0.04,0.16,0.00,19.44,23.14,26.41,14.24,46.73,1021.92,2047.11,3444.95,3082.28,3521.50,600.31,606.74,10.55,0000 0000 0000 0000 000000
2017-10-12 09:42:56,0.02,0.16,0.00,19.47,23.14,26.40,14.17,46.67,1021.85,2047.15,3444.11,3082.00,3520.99,600.01,606.23,10.60,0000 0000 0000 0000 000000
2017-10-12 09:47:58,0.05,0.16,0.00,19.42,23.12,26.39,14.22,46.76,1021.83,2047.12,3443.43,3081.28,3520.22,599.87,606.27,10.65,0000 0000 0000 0000 000000
2017-10-12 09:52:59,0.01,0.17,0.00,19.41,23.12,26.40,14.22,46.60,1021.88,2047.24,3442.95,3081.00,3520.00,600.25,606.69,10.70,0000 0000 0000 0000 000000
2017-10-12 09:58:00,0.03,0.17,0.00,19.39,23.12,26.39,14.18,46.61,1021.88,2047.35,3442.16,3080.92,3519.50,599.95,606.40,10.75,0000 0000 0000 0000 000000
2017-10-12 10:03:01,0.06,0.17,0.00,19.42,23.10,26.39,14.16,46.63,1021.94,2047.53,3441.66,3080.18,3519.02,599.76,606.06,10.80,0000 0000 0000 0000 000000
2017-10-12 10:08:03,0.02,0.17,0.00,19.38,23.09,26.37,14.19,46.80,1021.97,2047.80,3441.01,3080.00,3518.96,599.94,606.53,10.85,0000 0000 0000 0000 000000
2017-10-12 10:13:04,0.03,0.17,0.00,19.38,23.08,26.35,14.21,46.49,1021.95,2047.89,3440.29,3079.84,3518.25,600.21,606.78,10.90,0000 0000 0000 0000 000000
2017-10-12 10:18:06,0.03,0.17,0.00,19.33,23.07,26.37,14.19,46.48,1021.97,2047.94,3439.78,3079.08,3517.98,600.25,606.78,10.95,0000 0000 0000 0000 000000
2017-10-12 10:23:07,0.02,0.18,0.00,19.35,23.07,26.33,14.17,46.42,1021.98,2047.95,3438.96,3078.98,3517.29,600.17,606.82,11.00,0000 0000 0000 0000 000000
2017-10-12 10:28:08,0.03,0.18,0.00,19.33,23.05,26.32,14.23,46.60,1021.98,2047.97,3438.12,3078.50,3516.98,600.33,607.03,11.05,0000 0000 0000 0000 000000
2017-10-12 10:33:10,0.02,0.18,0.00,19.33,23.04,26.30,14.17,46.55,1021.99,2047.96,3437.65,3078.01,3516.25,600.16,606.98,11.10,0000 0000 0000 0000 000000
2017-10-12 10:38:11,0.00,0.18,0.00,19.29,23.03,26.29,14.21,46.64,1021.99,2047.98,3437.01,3077.93,3515.99,599.81,606.68,11.15,0000 0000 0000 0000 000000
2017-10-12 10:43:12,0.05,0.18,0.00,19.30,23.02,26.29,14.17,46.76,1021.99,2047.98,3436.27,3077.17,3515.44,599.92,606.64,11.20,0000 0000 0000 0000 000000
2017-10-12 10:48:13,0.02,0.18,0.00,19.30,23.01,26.28,14.19,46.69,1021.99,2047.98,3435.41,3076.97,3515.00,600.18,606.93,11.25,0000 0000 0000 0000 000000
2017-10-12 10:53:15,0.03,0.18,0.00,19.30,23.00,26.27,14.09,46.77,1021.99,2047.98,3434.97,3076.46,3514.53,599.53,606.22,11.30,0000 0000 0000 0000 000000
2017-10-12 10:58:16,0.02,0.19,0.00,19.26,22.99,26.26,14.23,46.74,1021.96,2047.98,3434.17,3076.02,3514.01,600.30,607.20,11.36,0000 0000 0000 0000 000000
2017-10-12 11:03:17,0.01,0.19,0.00,19.25,22.97,26.24,14.25,46.83,1021.91,2047.98,3433.93,3075.99,3513.55,600.13,606.92,11.41,0000 0000 0000 0000 000000
2017-10-12 11:08:18,0.03,0.19,0.00,19.27,22.97,26.22,14.14,46.64,1021.88,2047.98,3433.10,3075.38,3513.01,599.77,606.54,11.46,0000 0000 0000 0000 000000
2017-10-12 11:13:20,0.02,0.19,0.00,19.24,22.95,26.21,14.16,46.73,1021.90,2047.99,3432.24,3075.00,3512.52,599.79,606.51,11.51,0000 0000 0000 0000 000000
2017-10-12 11:18:21,0.03,0.19,0.00,19.22,22.94,26.21,14.22,46.78,1021.85,2047.99,3431.50,3074.67,3512.02,599.78,606.78,11.56,0000 0000 0000 0000 000000
2017-10-12 11:23:22,0.03,0.19,0.00,19.17,22.92,26.21,14.30,46.69,1021.79,2047.99,3430.66,3074.03,3511.72,599.93,606.77,11.61,0000 0000 0000 0000 000000
2017-10-12 11:28:24,0.01,0.19,0.00,19.22,22.91,26.17,14.25,46.67,1021.67,2048.01,3430.03,3073.99,3511.10,600.12,606.87,11.66,0000 0000 0000 0000 000000
2017-10-12 11:33:25,0.03,0.20,0.00,19.17,22.89,26.19,14.16,46.64,1021.69,2048.01,3429.44,3073.67,3510.99,599.63,606.66,11.71,0000 0000 0000 0000 000000
2017-10-12 11:38:26,0.02,0.20,0.00,19.17,22.88,26.13,14.27,46.76,1021.66,2048.05,3428.98,3073.10,3510.80,600.20,607.00,11.76,0000 0000 0000 0000 000000
2017-10-12 11:43:27,0.02,0.20,0.00,19.12,22.87,26.16,14.21,46.80,1021.59,2048.08,3428.27,3073.00,3510.08,600.25,606.96,11.81,0000 0000 0000 0000 000000
2017-10-12 11:48:28,0.03,0.20,0.00,19.15,22.86,26.13,14.14,46.72,1021.56,2048.22,3427.89,3072.93,3510.00,600.02,606.89,11.86,0000 0000 0000 0000 000000
2017-10-12 11:53:30,0.06,0.20,0.00,19.09,22.84,26.12,14.18,46.68,1021.54,2048.62,3427.09,3072.34,3509.90,600.03,607.05,11.91,0000 0000 0000 0000 000000
2017-10-12 11:58:31,0.03,0.21,0.00,19.09,22.83,26.11,14.19,46.67,1021.53,2048.82,3427.00,3072.06,3509.22,599.81,606.86,11.96,0000 0000 0000 0000 000000
2017-10-12 12:03:33,0.02,0.21,0.00,19.04,22.82,26.11,14.18,46.85,1021.51,2048.94,3426.49,3072.01,3509.02,599.67,606.69,12.01,0000 0000 0000 0000 000000
2017-10-12 12:08:33,0.00,0.21,0.00,19.07,22.81,26.09,14.24,46.75,1021.51,2048.97,3426.02,3071.99,3508.99,599.95,606.94,12.06,0000 0000 0000 0000 000000
2017-10-12 12:13:35,0.01,0.21,0.00,19.04,22.79,26.07,14.27,46.85,1021.51,2048.98,3425.72,3071.83,3508.78,600.05,607.03,12.11,0000 0000 0000 0000 000000
2017-10-12 12:18:36,0.03,0.21,0.00,19.03,22.78,26.07,14.20,46.77,1021.50,2048.99,3425.04,3071.19,3508.13,599.66,606.95,12.16,0000 0000 0000 0000 000000
2017-10-12 12:23:37,0.00,0.21,0.00,18.97,22.77,26.06,14.26,46.89,1021.51,2048.99,3425.00,3071.07,3508.04,600.34,607.44,12.21,0000 0000 0000 0000 000000
2017-10-12 12:28:39,0.00,0.21,0.00,19.00,22.76,26.02,14.18,46.78,1021.50,2048.99,3424.97,3071.01,3508.00,599.91,606.96,12.26,0000 0000 0000 0000 000000
2017-10-12 12:33:40,0.01,0.21,0.00,18.95,22.74,26.02,14.20,46.83,1021.50,2048.99,3424.54,3071.00,3508.00,600.17,607.41,12.31,0000 0000 0000 0000 000000
2017-10-12 12:38:42,0.00,0.21,0.00,18.96,22.73,26.01,14.28,46.69,1021.50,2048.99,3424.02,3071.00,3507.97,600.23,607.45,12.36,0000 0000 0000 0000 000000
2017-10-12 12:43:43,0.00,0.21,0.00,18.91,22.72,25.99,14.23,46.76,1021.50,2049.01,3424.00,3070.99,3507.61,600.13,607.43,12.41,0000 0000 0000 0000 000000
2017-10-12 12:48:44,0.02,0.21,0.00,18.94,22.71,25.96,14.23,46.80,1021.50,2049.02,3423.58,3070.97,3507.07,599.89,607.14,12.46,0000 0000 0000 0000 000000
2017-10-12 12:53:46,0.01,0.21,0.00,18.92,22.69,25.96,14.26,46.77,1021.50,2049.03,3423.02,3070.64,3507.01,599.93,607.16,12.51,0000 0000 0000 0000 000000
2017-10-12 12:58:47,0.01,0.21,0.00,18.90,22.68,25.91,14.16,46.77,1021.50,2049.06,3422.96,3070.16,3507.00,599.70,607.06,12.56,0000 0000 0000 0000 000000